Weather History for Billings, MT

Change the Weather History Date:

Sunday, February 24, 2013

  Actual Average Record
Temperature  
Mean Temperature 33 °F 32 °F  
Max Temperature 41 °F 43 °F 71 °F (1995)
Min Temperature 24 °F 22 °F -17 °F (2003)
Degree Days  
Heating Degree Days 32 33  
Month to date heating degree days 767 841  
Since 1 July heating degree days 4446 4837  
Cooling Degree Days 0 0  
Month to date cooling degree days 0 0  
Year to date cooling degree days 0 0  
Moisture  
Dew Point 17 °F    
Average Humidity 53    
Maximum Humidity 69    
Minimum Humidity 37    
Precipitation  
Precipitation 0.00 in 0.02 in 0.45 in (1978)
Month to date precipitation 0.29 0.40  
Year to date precipitation 0.88 0.88  
Snow  
Snow 0.00 in 0.30 in 7.70 in (1978)
Month to date snowfall 4.4 5.2  
Since 1 July snowfall 32.1 33.5  
Snow Depth 0.00 in    
Sea Level Pressure  
Sea Level Pressure 30.13 in    
Wind  
Wind Speed 11 mph (West)    
Max Wind Speed 21 mph    
Max Gust Speed 22 mph    
Visibility 10 miles    
Events      
T = Trace of Precipitation, MM = Missing Value Source: NWS Daily Summary

Daily Weather History Graph

Daily Weather History Graph

Search for Another Location

Airport:

Trip Planner

Search our weather history database for the weather conditions in past years. The results will help you decide how hot, cold, wet, or windy it might be!

Date:

Astronomy

Feb. 24, 2013 Rise Set
Actual Time 7:01 AM MST 5:54 PM MST
Civil Twilight 6:30 AM MST 6:24 PM MST
Nautical Twilight 5:56 AM MST 6:58 PM MST
Astronomical Twilight 5:22 AM MST 7:33 PM MST
Moon 5:08 PM MST (2/24) 6:01 AM MST (2/24)
Length of Visible Light 11h 53m
Length of Day
10h 53m
Waxing Gibbous, 99% of the Moon is Illuminated
Feb 24
Waxing Gibbous
Feb 25
Full
Mar 4
Last Quarter
Mar 11
New
Mar 19
First Quarter

Hourly Weather History & Observations

Time (MST) Temp. Windchill Dew Point Humidity Pressure Visibility Wind Dir Wind Speed Gust Speed Precip Events Conditions
12:53 AM 28.9 °F 20.4 °F 21.9 °F 75% 30.07 in 10.0 mi WNW 9.2 mph - 0.00 in   Overcast
1:53 AM 30.0 °F 18.3 °F 21.0 °F 69% 30.08 in 10.0 mi NNW 17.3 mph - N/A   Overcast
2:53 AM 28.0 °F 17.0 °F 19.0 °F 69% 30.09 in 10.0 mi NW 13.8 mph - N/A   Scattered Clouds
3:53 AM 27.0 °F 15.2 °F 18.0 °F 69% 30.12 in 10.0 mi NW 15.0 mph - N/A   Scattered Clouds
4:53 AM 26.1 °F 15.0 °F 17.1 °F 69% 30.15 in 10.0 mi WNW 12.7 mph - N/A   Partly Cloudy
5:53 AM 24.1 °F 12.5 °F 16.0 °F 71% 30.18 in 10.0 mi WNW 12.7 mph - N/A   Clear
6:53 AM 25.0 °F 13.1 °F 15.1 °F 66% 30.20 in 10.0 mi WNW 13.8 mph - N/A   Clear
7:53 AM 27.0 °F 15.6 °F 16.0 °F 63% 30.21 in 10.0 mi WNW 13.8 mph - N/A   Clear
8:53 AM 30.9 °F 20.7 °F 18.0 °F 59% 30.22 in 10.0 mi WNW 13.8 mph - N/A   Clear
9:53 AM 33.1 °F 30.0 °F 19.0 °F 56% 30.21 in 10.0 mi Variable 3.5 mph - N/A   Clear
10:53 AM 37.9 °F 31.5 °F 17.1 °F 43% 30.19 in 10.0 mi NW 9.2 mph - N/A   Partly Cloudy
11:53 AM 37.9 °F 35.5 °F 15.1 °F 39% 30.17 in 10.0 mi Variable 3.5 mph - N/A   Partly Cloudy
12:53 PM 37.0 °F 31.6 °F 17.1 °F 44% 30.15 in 10.0 mi South 6.9 mph - N/A   Partly Cloudy
1:53 PM 39.9 °F 32.9 °F 18.0 °F 41% 30.11 in 10.0 mi South 11.5 mph 19.6 mph N/A   Partly Cloudy
2:53 PM 39.0 °F 31.8 °F 17.1 °F 41% 30.09 in 10.0 mi South 11.5 mph - N/A   Partly Cloudy
3:53 PM 39.9 °F 33.9 °F 16.0 °F 38% 30.09 in 10.0 mi SSW 9.2 mph - N/A   Partly Cloudy
4:53 PM 39.0 °F 31.8 °F 15.1 °F 38% 30.09 in 10.0 mi SW 11.5 mph - N/A   Partly Cloudy
5:53 PM 36.0 °F 30.3 °F 15.1 °F 43% 30.11 in 10.0 mi SW 6.9 mph - N/A   Partly Cloudy
6:53 PM 34.0 °F 27.2 °F 15.1 °F 46% 30.11 in 10.0 mi SW 8.1 mph - N/A   Partly Cloudy
7:53 PM 32.0 °F 22.5 °F 12.9 °F 45% 30.10 in 10.0 mi WSW 12.7 mph - N/A   Clear
8:53 PM 30.0 °F 18.7 °F 18.0 °F 61% 30.08 in 10.0 mi WSW 16.1 mph - N/A   Clear
9:53 PM 28.9 °F 18.2 °F 18.0 °F 64% 30.08 in 10.0 mi WSW 13.8 mph - N/A   Clear
10:53 PM 28.9 °F 18.2 °F 17.1 °F 61% 30.06 in 10.0 mi WSW 13.8 mph - N/A   Clear
11:53 PM 28.0 °F 19.3 °F 16.0 °F 61% 30.06 in 10.0 mi SW 9.2 mph - N/A   Clear